User: anonymous   Login
Location: South Range
(44.4886°N, 65.7879°W)
Time: 03:10:46
(UTC-04:00)
Language:

Iridium 56 - Orbit

View from above orbital plane
View from above orbital plane
View from above satellite
View from above satellite

Ground track
Ground track

The orbit data is extracted from the following two-line orbital elements,

1 25170U 98010B   16036.53682183 -.00000057  00000-0 -27406-4 0  9992
2 25170  86.3965 198.4644 0002133  97.3836 262.7602 14.34220256940439
Epoch (UTC): 05 February 2016 12:53:01
Eccentricity: 0.0002133
inclination: 86.3965°
perigee height: 776 km
apogee height: 779 km
right ascension of ascending node: 198.4644°
argument of perigee: 97.3836°
revolutions per day: 14.34220256
mean anomaly at epoch: 262.7602°
orbit number at epoch: 94043

The dashed part of the orbit path shows where the satellite is in the earth's shadow,  

DLR